Location: *
(41.3833°S, 177.8333°W)
Time: 09:17:49
(UTC+00:00)

Cosmos 2056 Rocket - Pass Details

Date: 01 April 2020
Orbit: 742 x 800 km, 74.0° (Epoch: 03 June)

Event Time Altitude Azimuth Distance (km) Brightness Sun altitude
Rises 16:42:21 0° 197° (SSW) 3,319 6.7 -16.8°
Reaches altitude 10° 16:44:47 10° 193° (SSW) 2,390 6.0 -16.4°
Maximum altitude 16:50:13 63° 112° (ESE) 896 4.1 -15.4°
Drops below altitude 10° 16:55:36 10° 30° (NNE) 2,379 6.4 -14.4°
Sets 16:58:01 0° 27° (NNE) 3,302 7.1 -13.9°
